Wind_Speed
11 10 8 8 7 5 2 5 4 10 14 15 14 15 16 9 12 13 18 18 17 17 15 15 20 19 24 9 17 16 16 15 15 13 13 13 12 13 13 14 14 15 16 16
9 7 5 3 1 4 3 4 6 8 9 17 18 20 19 15 14 13 16 16 16 17 17 16 21 21 20 23 26 22 19 15 10 13 12 12 11 11 11 12 13 14 15 16
4 1 1 3 7 6 2 5 7 9 12 14 13 16 16 14 13 13 13 13 12 13 16 21 21 21 20 24 23 27 23 21 20 15 12 10 8 8 9 11 12 13 13 14
3 2 3 6 6 6 4 11 16 15 8 11 11 11 13 12 12 13 12 14 13 12 20 24 23 23 23 26 22 25 25 23 19 14 15 17 14 10 7 3 5 7 8 11
1 4 6 8 8 9 8 7 16 17 4 6 9 8 12 11 10 11 11 10 14 15 16 22 23 24 21 20 22 24 25 23 19 17 20 19 16 13 11 9 11 12 10 11
0 2 3 7 11 10 8 2 15 14 11 8 8 1 5 10 11 11 15 19 20 21 21 23 24 22 22 24 25 28 23 25 20 20 21 19 16 15 15 15 16 17 20 18
2 3 5 11 15 14 4 6 10 10 11 13 6 5 4 7 10 15 15 18 18 20 23 24 22 20 25 27 25 17 20 25 22 18 15 19 17 16 16 17 19 21 22 22
1 1 2 16 7 6 5 9 9 10 9 11 10 8 8 8 10 12 15 17 18 19 20 21 22 20 21 21 15 15 20 20 19 17 19 18 19 16 14 15 17 17 18 19
5 3 5 7 10 9 11 8 9 8 8 9 9 9 9 9 10 12 16 17 18 17 17 19 20 20 20 19 15 15 17 18 16 16 18 20 18 17 15 15 14 14 14 14
4 6 9 8 10 10 10 10 10 10 9 8 9 8 9 9 9 11 15 16 16 15 15 17 18 18 16 15 13 13 14 16 17 20 20 19 21 18 16 15 14 14 13 13
4 7 7 11 10 9 10 10 10 9 9 8 7 9 8 8 9 12 13 14 14 14 15 17 17 17 18 17 13 12 12 12 13 15 18 23 29 23 23 25 16 15 15 14
2 4 6 6 8 8 9 9 8 8 8 10 9 8 8 8 11 12 13 14 14 14 15 17 17 18 18 17 13 10 10 11 11 10 10 12 15 21 28 27 25 23 21 18
2 8 10 8 8 8 8 7 8 8 10 8 10 9 9 9 11 11 12 14 15 15 14 15 15 17 18 17 15 13 11 8 8 8 8 9 9 11 14 19 26 26 23 22
6 7 6 6 4 5 5 6 7 9 10 10 10 10 9 9 10 11 12 12 12 13 14 15 16 18 17 15 13 12 11 12 10 10 9 10 10 10 9 9 11 14 20 21
7 9 8 7 5 5 5 3 4 6 7 9 10 9 9 10 11 12 12 10 11 13 15 15 16 17 17 14 14 14 11 11 10 10 10 10 10 10 11 11 11 11 11 15
5 7 7 5 5 6 5 5 6 6 7 7 8 8 9 9 9 10 12 14 14 14 15 15 16 16 16 14 11 10 11 11 10 9 9 10 10 10 10 11 12 13 14 13
6 3 3 4 4 5 6 6 7 6 7 7 7 7 7 7 8 9 10 10 10 11 12 13 14 14 14 13 10 9 8 9 9 9 10 10 10 11 11 11 12 13 14 14
8 7 5 4 4 5 6 8 8 8 8 7 7 9 10 9 8 7 8 8 8 11 14 13 14 12 12 12 10 8 8 8 8 9 9 10 10 10 10 10 10 10 11 12
8 9 8 8 8 8 9 9 9 9 8 7 8 10 8 8 7 8 8 8 9 10 15 14 13 12 12 12 9 8 8 7 8 9 9 9 9 9 9 9 9 9 9 9
10 10 10 11 10 10 10 9 8 8 7 7 7 7 7 6 5 5 6 11 11 9 10 13 10 10 11 11 10 8 7 7 8 8 7 7 7 8 9 10 9 8 8 8
10 11 11 11 11 10 9 8 8 8 7 7 6 6 5 5 6 6 4 6 10 11 10 11 13 11 10 10 9 8 7 7 7 6 6 7 7 7 7 7 7 6 6 6
11 11 11 10 10 9 7 7 7 6 5 4 4 3 1 3 3 5 7 7 7 10 9 9 10 11 10 10 9 8 8 7 7 6 6 6 5 5 5 5 5 5 5 5
11 11 10 9 8 8 7 6 5 5 5 4 4 4 4 5 6 6 4 7 6 8 7 8 10 10 10 8 8 8 8 8 7 6 6 5 4 4 4 4 4 4 4 3
10 9 8 7 6 5 5 4 4 3 4 3 3 4 4 4 3 5 4 5 6 7 6 7 9 9 9 7 7 7 6 6 6 5 5 5 4 3 3 2 2 2 2 2
8 7 6 4 2 1 1 1 1 0 1 2 3 3 3 4 3 2 3 3 5 5 4 6 8 8 7 7 6 6 5 5 4 4 4 3 3 2 2 1 1 1 2 2
7 5 4 3 2 3 3 4 6 5 4 4 3 2 2 2 2 2 3 3 4 4 4 4 5 6 6 6 5 4 4 4 4 4 3 2 2 2 2 2 3 3 3 4
5 4 4 3 2 2 3 4 6 6 4 4 4 2 2 1 2 2 3 4 4 5 5 5 5 6 6 6 5 4 5 5 5 4 4 3 3 3 3 3 3 4 4 5
Wind_Direction
88 101 115 138 153 166 228 253 259 314 319 323 334 346 337 73 58 35 37 40 16 350 346 16 29 32 43 112 141 150 144 149 152 161 166 173 176 183 188 195 202 205 208 212
79 110 120 138 170 279 244 263 293 299 326 0 44 38 35 36 43 36 40 28 39 348 351 14 29 28 49 49 52 78 71 67 145 160 155 160 163 185 193 201 208 210 215 218
101 40 325 142 108 29 34 2 350 330 352 53 47 43 28 12 29 29 29 30 24 9 356 10 23 32 40 56 56 62 61 57 59 73 85 99 142 187 202 214 214 213 218 221
105 202 120 76 29 72 1 52 19 354 66 103 108 90 57 30 15 16 22 23 17 9 0 4 19 37 40 48 53 59 54 47 47 50 63 69 73 83 95 98 204 210 219 229
96 61 113 117 39 12 3 57 27 2 85 146 148 90 47 25 32 19 11 25 28 21 13 9 19 29 43 51 52 53 54 45 40 41 57 59 61 52 59 83 78 79 81 91
161 85 111 50 350 332 307 165 15 1 357 333 24 35 35 11 18 28 21 21 25 28 25 24 21 27 38 42 41 37 40 47 37 41 50 48 53 60 67 75 82 81 75 72
43 46 99 360 344 323 244 26 14 23 31 39 70 61 77 36 29 26 24 27 29 32 34 23 19 29 40 38 38 30 39 49 39 38 48 55 47 54 69 75 80 79 76 65
17 320 117 352 345 19 357 39 35 41 50 75 82 74 57 47 35 31 27 25 30 34 34 27 24 30 39 42 36 40 51 53 46 38 45 57 60 49 58 72 73 71 73 69
26 55 50 24 57 44 52 64 35 46 47 62 64 58 44 39 36 32 29 27 27 32 30 30 26 28 31 24 30 44 57 58 57 53 53 54 59 62 50 57 65 66 67 66
203 69 60 54 61 56 57 60 52 42 44 50 63 58 50 37 32 34 30 28 23 29 32 31 27 28 29 26 33 42 53 61 60 59 58 59 59 56 68 58 63 67 68 69
104 102 114 61 52 56 52 46 53 54 49 46 55 54 56 45 34 32 32 32 32 28 24 25 27 27 24 24 31 45 52 57 63 66 68 68 62 59 62 62 65 71 68 68
54 354 83 71 62 55 55 47 38 35 46 44 44 46 50 51 42 32 32 30 33 33 28 22 24 23 22 27 33 44 51 50 56 66 72 80 81 72 63 65 66 70 73 77
77 82 93 91 68 64 67 51 44 44 39 43 41 44 50 57 49 45 39 34 29 27 26 29 30 27 21 24 32 44 51 53 64 72 78 83 85 89 88 68 65 65 67 70
42 141 116 55 72 58 74 64 65 55 47 44 44 49 52 56 56 50 43 38 35 34 31 27 25 23 17 24 35 45 54 59 63 65 72 78 82 84 89 91 81 68 61 67
68 66 77 85 64 54 47 53 72 58 57 57 50 47 51 58 56 49 40 35 40 39 33 27 25 19 16 21 33 39 49 55 67 74 76 83 88 89 89 88 85 79 71 56
123 108 112 91 68 56 46 53 70 59 51 56 63 57 54 57 57 52 46 39 38 30 23 21 20 10 12 19 29 41 47 52 63 69 71 71 72 76 77 75 71 66 58 48
165 142 140 90 72 63 66 64 66 62 60 58 55 58 66 64 52 39 36 37 43 38 26 20 10 8 14 17 25 35 45 51 58 64 64 65 67 68 69 71 70 68 61 51
85 94 84 81 98 94 83 80 80 77 71 69 67 68 63 57 47 34 22 20 31 36 28 16 8 9 14 18 26 35 43 51 58 61 62 63 64 65 65 67 68 71 68 56
104 102 96 90 93 96 92 86 81 79 72 66 66 62 59 52 38 30 25 33 32 31 13 6 8 12 14 16 29 34 41 50 58 62 66 66 64 64 68 70 71 71 69 66
106 104 104 104 103 106 104 100 101 89 69 65 64 61 53 36 24 22 34 46 30 15 5 8 14 17 19 19 39 40 44 48 55 59 61 68 71 73 75 74 76 74 72 70
105 106 105 106 99 91 93 96 94 84 74 71 71 69 59 45 31 0 9 33 18 12 12 15 20 19 18 27 34 44 52 60 67 71 74 78 79 80 80 79 79 79 79 79
123 121 120 119 113 106 99 100 101 104 102 94 91 94 108 50 33 42 43 21 13 13 20 22 21 22 27 34 42 47 54 60 63 66 71 74 81 88 91 91 89 87 83 77
131 130 125 121 116 112 110 104 107 112 107 95 77 53 40 26 13 6 8 17 16 15 25 23 23 23 30 36 41 44 48 53 56 58 61 65 70 77 83 85 85 79 69 59
128 125 121 122 126 129 127 125 118 108 88 73 50 43 8 2 34 33 36 20 29 35 35 28 23 27 35 32 34 38 42 44 46 48 49 55 59 64 72 78 73 56 44 41
125 123 125 125 114 88 145 172 194 249 332 8 28 33 35 29 23 24 21 15 18 21 18 11 21 27 27 26 26 28 28 27 30 28 30 31 35 41 36 8 345 312 311 313
150 160 167 192 266 274 261 249 271 275 266 280 304 327 352 358 356 356 344 342 339 340 340 344 354 3 360 356 360 3 8 4 4 358 357 347 340 339 330 315 302 292 281 277
176 186 183 193 225 277 300 298 291 288 240 256 288 262 287 308 319 323 329 333 334 334 330 323 326 334 340 335 327 322 320 315 307 310 318 305 290 283 286 297 291 282 277 276
Height
700 702 704 707 710 711 711 712 717 701 700 694 691 691 692 703 711 713 709 707 715 716 706 692 685 682 677 680 684 688 691 694 699 703 707 710 714 718 722 726 730 733 736 739
708 706 707 712 711 710 710 708 706 702 698 695 715 717 722 723 723 724 721 724 720 726 717 703 695 692 688 688 690 689 692 696 700 703 706 709 713 718 722 725 728 731 734 737
713 712 711 713 713 712 709 706 707 712 705 715 739 744 747 743 739 737 735 733 727 730 723 713 708 704 702 696 698 697 700 702 702 704 707 708 709 717 721 724 727 729 732 734
716 715 716 721 715 715 713 716 724 722 727 736 744 751 752 755 753 748 745 741 737 732 731 725 717 713 708 703 707 705 707 709 710 713 710 706 711 717 719 722 724 726 728 730
717 712 717 718 728 728 725 724 741 739 732 731 739 739 754 759 758 756 752 751 747 741 737 733 726 721 719 721 717 714 714 716 719 719 712 713 717 721 722 723 724 725 728 729
718 719 722 731 729 726 725 721 748 748 747 737 739 730 757 766 763 760 757 753 750 748 746 735 734 731 729 725 722 720 720 718 725 723 718 721 724 725 725 727 728 729 731 732
727 723 723 740 730 725 720 752 760 760 761 755 759 767 773 771 768 765 762 760 757 755 751 750 745 740 732 728 731 740 731 721 730 733 735 725 733 733 731 732 735 734 735 738
728 731 734 762 735 739 766 772 771 770 767 768 771 775 776 774 773 770 766 765 762 759 758 758 756 751 746 745 748 745 736 737 741 745 737 735 734 742 742 739 740 742 742 744
761 767 781 780 779 781 778 780 779 776 776 775 776 778 780 778 777 775 772 769 767 765 765 765 763 760 754 752 753 750 748 747 749 749 747 744 746 744 749 747 746 749 749 749
768 783 785 785 787 787 787 786 786 785 782 779 779 781 783 783 782 779 778 774 772 771 772 771 769 767 765 762 759 757 756 755 755 753 753 753 753 756 752 755 754 754 755 755
773 782 785 789 791 791 792 790 789 790 789 786 784 785 785 785 785 785 783 781 781 779 779 776 773 772 769 765 763 762 761 761 761 760 762 763 763 762 762 758 760 760 761 759
776 790 786 794 796 796 796 796 796 793 791 791 790 789 789 789 790 789 788 787 785 784 783 780 777 776 773 770 768 766 765 766 766 766 769 769 770 771 768 768 767 766 766 766
790 794 795 799 800 800 800 801 798 797 796 795 797 796 795 795 795 795 794 792 790 789 788 786 784 783 779 775 773 772 771 772 772 773 773 772 772 773 774 776 773 773 773 771
797 797 797 799 801 802 802 802 803 803 803 801 801 801 801 800 800 799 799 799 797 795 793 791 789 786 784 782 779 777 777 776 776 776 776 775 775 776 778 779 780 780 780 779
798 799 801 804 804 804 803 803 803 805 806 806 806 807 807 806 806 805 804 802 801 800 799 797 794 793 790 786 784 782 781 781 781 781 782 781 781 781 782 782 783 783 782 781
800 802 804 806 805 807 807 806 806 809 810 810 811 812 811 812 812 811 809 807 806 805 804 802 799 797 793 791 788 788 787 786 785 784 784 784 783 784 784 784 783 783 784 784
797 799 801 805 809 811 812 812 813 814 814 815 816 815 815 816 816 816 814 813 812 810 809 807 804 800 797 795 793 792 790 789 787 787 786 786 786 786 786 786 787 787 788 788
804 806 808 808 810 812 815 816 817 818 820 821 821 819 820 820 821 820 819 816 814 812 810 808 807 804 801 798 796 794 793 792 790 790 790 789 789 789 789 790 790 791 792 794
808 810 812 814 815 817 819 821 822 823 824 824 823 822 823 823 823 822 821 818 816 814 813 810 808 806 803 800 798 797 796 795 794 793 792 793 794 794 794 795 796 797 798 799
813 815 817 819 821 822 824 826 826 827 827 826 825 825 825 826 825 824 823 821 820 818 816 813 811 809 807 804 801 800 799 798 798 797 798 798 798 799 800 800 800 801 802 802
819 821 823 825 827 827 828 828 828 828 828 828 828 829 829 829 827 825 822 820 821 819 817 815 813 811 809 807 805 804 804 803 803 803 803 803 803 803 804 805 805 806 806 806
823 825 827 828 829 830 831 831 831 831 832 832 831 831 831 829 828 827 826 825 823 821 820 819 817 814 812 811 809 809 808 807 807 807 806 806 806 807 808 808 809 809 809 808
824 826 827 828 829 830 832 832 833 833 833 833 832 831 830 829 828 826 825 827 825 824 823 821 819 816 815 814 813 812 811 810 810 809 809 809 810 810 810 810 810 810 809 809
825 827 828 830 831 831 832 833 833 833 833 833 832 831 831 829 829 829 829 828 827 825 824 823 821 819 817 817 816 815 814 814 813 812 812 811 811 811 811 811 811 810 810 810
826 828 829 830 830 830 832 832 833 833 833 833 833 832 831 831 830 830 830 829 828 827 826 824 823 821 821 819 818 817 816 815 815 814 814 813 813 812 812 812 811 811 811 811
827 828 829 830 831 831 831 831 831 830 831 832 832 832 831 831 831 830 830 829 828 827 826 825 824 823 822 821 819 818 818 817 816 815 814 814 813 813 812 812 811 811 811 810
828 829 829 829 830 830 830 830 829 828 829 830 830 831 831 831 831 830 829 829 828 827 826 825 824 823 822 821 820 819 818 817 815 815 814 813 813 812 812 811 810 810 809 808